RYR90RC LGKR-LIME

Flight info

Callsign RYR90RC
Flight time 1h 33m
Altitude 38000
Route OLGAT DCT OKIMO DCT ENOXA DCT GARGA DCT ANC DCT BOA DCT OGPUD DCT BETMU DCT OSBUL
Aircraft B738/M-SDE3FGILRWY/SB1

Departure

Time 2026-05-07 11:14
Airport Corfu Ioannis Kapodistrias International Airport (LGKR)

Arrival

Time 2026-05-07 12:47
Airport Il Caravaggio International Airport (LIME)
Time Latitude Longitude Altitude Speed Heading
2026-05-07 10:46 39.60668 19.91354 8 ft 0 kts 79°
2026-05-07 11:01 39.60667 19.91345 8 ft 4 kts 78°
2026-05-07 11:01 39.60661 19.91311 8 ft 4 kts 80°
2026-05-07 11:01 39.60658 19.91276 10 ft 4 kts 92°
2026-05-07 11:02 39.60662 19.91243 9 ft 4 kts 117°
2026-05-07 11:02 39.60677 19.91222 9 ft 3 kts 175°
2026-05-07 11:02 39.60684 19.91222 8 ft 0 kts 178°
2026-05-07 11:05 39.60682 19.91222 8 ft 2 kts 178°
2026-05-07 11:05 39.60662 19.91223 9 ft 3 kts 180°
2026-05-07 11:05 39.60639 19.91219 8 ft 3 kts 190°
2026-05-07 11:05 39.60617 19.91211 8 ft 3 kts 198°
2026-05-07 11:06 39.60602 19.91204 8 ft 0 kts 200°
2026-05-07 11:10 39.60590 19.91198 8 ft 8 kts 202°
2026-05-07 11:11 39.60497 19.91155 7 ft 20 kts 190°
2026-05-07 11:11 39.60350 19.91175 10 ft 26 kts 169°
2026-05-07 11:11 39.60172 19.91219 10 ft 25 kts 168°
2026-05-07 11:11 39.59997 19.91265 9 ft 27 kts 168°
2026-05-07 11:12 39.59807 19.91314 10 ft 29 kts 168°
2026-05-07 11:12 39.59618 19.91363 6 ft 27 kts 169°
2026-05-07 11:12 39.59440 19.91408 4 ft 25 kts 169°
2026-05-07 11:12 39.59273 19.91451 5 ft 23 kts 169°
2026-05-07 11:13 39.59166 19.91450 6 ft 11 kts 149°
2026-05-07 11:13 39.59194 19.91482 5 ft 9 kts 332°
2026-05-07 11:13 39.59257 19.91454 5 ft 14 kts 346°
2026-05-07 11:13 39.59505 19.91391 5 ft 72 kts 349°
2026-05-07 11:14 39.60240 19.91203 10 ft 141 kts 349°
2026-05-07 11:14 39.61344 19.90926 329 ft 169 kts 352°
2026-05-07 11:14 39.62531 19.90694 1092 ft 178 kts 353°
2026-05-07 11:14 39.63343 19.90547 1664 ft 179 kts 354°
2026-05-07 11:15 39.64980 19.90238 2733 ft 185 kts 353°
2026-05-07 11:15 39.65802 19.89871 3166 ft 195 kts 325°
2026-05-07 11:15 39.66521 19.88414 3926 ft 197 kts 275°
2026-05-07 11:15 39.66407 19.86681 4806 ft 193 kts 266°
2026-05-07 11:16 39.66439 19.84917 5575 ft 199 kts 268°
2026-05-07 11:16 39.66441 19.83113 6263 ft 201 kts 266°
2026-05-07 11:16 39.66421 19.81301 6875 ft 202 kts 266°
2026-05-07 11:16 39.66446 19.79436 7180 ft 219 kts 277°
2026-05-07 11:17 39.67077 19.77542 7435 ft 244 kts 301°
2026-05-07 11:17 39.68250 19.75824 7807 ft 260 kts 310°
2026-05-07 11:17 39.69534 19.74136 8433 ft 264 kts 310°
2026-05-07 11:17 39.70865 19.72381 8921 ft 282 kts 310°
2026-05-07 11:18 39.72256 19.70534 9663 ft 289 kts 310°
2026-05-07 11:18 39.73668 19.68653 10472 ft 293 kts 309°
2026-05-07 11:18 39.75137 19.66678 10764 ft 317 kts 309°
2026-05-07 11:18 39.76726 19.64532 10977 ft 341 kts 309°
2026-05-07 11:19 39.78397 19.62280 11505 ft 351 kts 309°
2026-05-07 11:19 39.80085 19.60006 12276 ft 353 kts 309°
2026-05-07 11:19 39.81788 19.57708 13146 ft 354 kts 309°
2026-05-07 11:19 39.83497 19.55395 13953 ft 355 kts 309°
2026-05-07 11:20 39.85153 19.53150 14587 ft 359 kts 309°
2026-05-07 11:20 39.86782 19.50952 15204 ft 363 kts 309°
2026-05-07 11:20 39.88549 19.48580 15867 ft 366 kts 309°
2026-05-07 11:20 39.90302 19.46231 16543 ft 369 kts 310°
2026-05-07 11:21 39.92096 19.43825 17234 ft 372 kts 309°
2026-05-07 11:21 39.93903 19.41399 17868 ft 375 kts 309°
2026-05-07 11:21 39.95732 19.38939 18471 ft 380 kts 309°
2026-05-07 11:21 39.97576 19.36456 19019 ft 383 kts 309°
2026-05-07 11:22 39.99429 19.33959 19587 ft 386 kts 310°
2026-05-07 11:22 40.01299 19.31437 20147 ft 389 kts 310°
2026-05-07 11:22 40.03187 19.28888 20682 ft 392 kts 310°
2026-05-07 11:22 40.05086 19.26323 21208 ft 395 kts 310°
2026-05-07 11:23 40.07001 19.23732 21728 ft 398 kts 310°
2026-05-07 11:23 40.08932 19.21120 22241 ft 401 kts 310°
2026-05-07 11:23 40.10878 19.18484 22740 ft 404 kts 310°
2026-05-07 11:23 40.12837 19.15827 23234 ft 408 kts 310°
2026-05-07 11:24 40.14811 19.13147 23705 ft 411 kts 310°
2026-05-07 11:24 40.16802 19.10443 24080 ft 415 kts 310°
2026-05-07 11:24 40.18815 19.07705 24432 ft 419 kts 310°
2026-05-07 11:24 40.20837 19.04955 24903 ft 420 kts 310°
2026-05-07 11:25 40.22864 19.02196 25393 ft 420 kts 310°
2026-05-07 11:25 40.24889 18.99437 25842 ft 422 kts 310°
2026-05-07 11:25 40.26930 18.96655 26230 ft 424 kts 310°
2026-05-07 11:25 40.28978 18.93864 26607 ft 426 kts 310°
2026-05-07 11:26 40.31035 18.91060 26994 ft 428 kts 310°
2026-05-07 11:26 40.33101 18.88241 27393 ft 429 kts 310°
2026-05-07 11:26 40.35175 18.85410 27772 ft 431 kts 310°
2026-05-07 11:26 40.37222 18.82610 28120 ft 432 kts 310°
2026-05-07 11:27 40.39307 18.79757 28462 ft 434 kts 310°
2026-05-07 11:27 40.41402 18.76886 28831 ft 436 kts 310°
2026-05-07 11:27 40.43499 18.74011 29142 ft 438 kts 310°
2026-05-07 11:27 40.45612 18.71108 29407 ft 442 kts 310°
2026-05-07 11:28 40.47744 18.68178 29671 ft 444 kts 310°
2026-05-07 11:28 40.49873 18.65250 30173 ft 441 kts 310°
2026-05-07 11:28 40.51982 18.62350 30662 ft 437 kts 310°
2026-05-07 11:28 40.54079 18.59463 31061 ft 436 kts 310°
2026-05-07 11:29 40.56168 18.56581 31377 ft 436 kts 310°
2026-05-07 11:29 40.58254 18.53699 31730 ft 435 kts 310°
2026-05-07 11:29 40.60337 18.50821 32115 ft 433 kts 310°
2026-05-07 11:29 40.62410 18.47953 32485 ft 432 kts 310°
2026-05-07 11:30 40.64476 18.45091 32822 ft 431 kts 309°
2026-05-07 11:30 40.66533 18.42239 33229 ft 429 kts 310°
2026-05-07 11:30 40.68577 18.39405 33742 ft 423 kts 310°
2026-05-07 11:30 40.70596 18.36602 34163 ft 420 kts 310°
2026-05-07 11:31 40.72606 18.33806 34359 ft 423 kts 309°
2026-05-07 11:31 40.74644 18.30967 34387 ft 429 kts 310°
2026-05-07 11:31 40.76695 18.28106 34563 ft 430 kts 309°
2026-05-07 11:31 40.78749 18.25244 34879 ft 428 kts 309°
2026-05-07 11:32 40.82807 18.19581 35591 ft 422 kts 309°
2026-05-07 11:32 40.84816 18.16774 35903 ft 420 kts 309°
2026-05-07 11:32 40.86817 18.13971 36162 ft 419 kts 309°
2026-05-07 11:33 40.88815 18.11171 36397 ft 418 kts 309°
2026-05-07 11:33 40.90807 18.08378 36671 ft 417 kts 309°
2026-05-07 11:33 40.92764 18.05633 36952 ft 415 kts 309°
2026-05-07 11:33 40.94767 18.02818 37234 ft 413 kts 309°
2026-05-07 11:34 40.96705 18.00091 37519 ft 411 kts 309°
2026-05-07 11:34 40.98658 17.97341 37835 ft 409 kts 308°
2026-05-07 11:34 41.00605 17.94593 37952 ft 411 kts 308°
2026-05-07 11:34 41.02474 17.91952 38061 ft 412 kts 308°
2026-05-07 11:35 41.04435 17.89178 38064 ft 415 kts 308°
2026-05-07 11:35 41.08364 17.83619 38062 ft 411 kts 308°
2026-05-07 11:36 41.12262 17.78094 38063 ft 408 kts 308°
2026-05-07 11:36 41.16122 17.72610 38077 ft 405 kts 308°
2026-05-07 11:37 41.19961 17.67148 38057 ft 404 kts 308°
2026-05-07 11:37 41.23787 17.61707 38063 ft 403 kts 308°
2026-05-07 11:38 41.27621 17.56252 38078 ft 407 kts 308°
2026-05-07 11:38 41.31518 17.50694 38071 ft 413 kts 308°
2026-05-07 11:39 41.35425 17.45115 38059 ft 416 kts 308°
2026-05-07 11:39 41.39375 17.39463 38071 ft 418 kts 308°
2026-05-07 11:40 41.43309 17.33827 38043 ft 410 kts 308°
2026-05-07 11:40 41.47159 17.28301 38053 ft 406 kts 308°
2026-05-07 11:41 41.50992 17.22780 38056 ft 406 kts 308°
2026-05-07 11:41 41.54825 17.17249 38049 ft 406 kts 308°
2026-05-07 11:42 41.58656 17.11714 38053 ft 406 kts 308°
2026-05-07 11:42 41.62487 17.06168 38051 ft 407 kts 308°
2026-05-07 11:43 41.66326 17.00600 38049 ft 408 kts 308°
2026-05-07 11:43 41.70170 16.95014 38047 ft 408 kts 308°
2026-05-07 11:44 41.74012 16.89421 38040 ft 409 kts 308°
2026-05-07 11:44 41.77866 16.83800 38053 ft 410 kts 308°
2026-05-07 11:45 41.81722 16.78165 38045 ft 411 kts 308°
2026-05-07 11:45 41.85581 16.72514 38032 ft 411 kts 308°
2026-05-07 11:46 41.89441 16.66852 38042 ft 412 kts 308°
2026-05-07 11:46 41.93303 16.61176 38032 ft 412 kts 308°
2026-05-07 11:47 41.97160 16.55495 38033 ft 412 kts 308°
2026-05-07 11:47 42.01014 16.49808 38031 ft 411 kts 308°
2026-05-07 11:48 42.04852 16.44135 38048 ft 411 kts 308°
2026-05-07 11:48 42.08667 16.38483 38034 ft 411 kts 308°
2026-05-07 11:49 42.12500 16.32795 38049 ft 410 kts 307°
2026-05-07 11:49 42.16324 16.27108 38030 ft 409 kts 307°
2026-05-07 11:50 42.20140 16.21421 38028 ft 408 kts 307°
2026-05-07 11:50 42.23940 16.15748 38025 ft 407 kts 307°
2026-05-07 11:51 42.27639 16.09993 38021 ft 403 kts 302°
2026-05-07 11:51 42.30871 16.03828 38030 ft 402 kts 300°
2026-05-07 11:52 42.34035 15.97608 38047 ft 402 kts 300°
2026-05-07 11:52 42.37215 15.91398 38035 ft 402 kts 300°
2026-05-07 11:53 42.40403 15.85210 38042 ft 402 kts 300°
2026-05-07 11:53 42.43576 15.79059 38021 ft 402 kts 300°
2026-05-07 11:54 42.46779 15.72844 38019 ft 402 kts 300°
2026-05-07 11:54 42.49930 15.66715 38035 ft 402 kts 300°
2026-05-07 11:55 42.53075 15.60584 38027 ft 403 kts 300°
2026-05-07 11:55 42.56213 15.54455 38024 ft 403 kts 300°
2026-05-07 11:56 42.59313 15.48387 38027 ft 403 kts 300°
2026-05-07 11:56 42.62525 15.42085 38029 ft 410 kts 300°
2026-05-07 11:57 42.65791 15.35662 38028 ft 416 kts 300°
2026-05-07 11:57 42.69091 15.29163 38022 ft 419 kts 300°
2026-05-07 11:58 42.72409 15.22617 38018 ft 421 kts 300°
2026-05-07 11:58 42.75723 15.16064 38016 ft 421 kts 300°
2026-05-07 11:59 42.79031 15.09507 38017 ft 420 kts 300°
2026-05-07 11:59 42.82323 15.02966 38019 ft 418 kts 300°
2026-05-07 12:00 42.85605 14.96431 38026 ft 417 kts 299°
2026-05-07 12:00 42.88876 14.89903 38030 ft 417 kts 299°
2026-05-07 12:01 42.92148 14.83357 38027 ft 418 kts 299°
2026-05-07 12:01 42.95397 14.76843 38020 ft 418 kts 299°
2026-05-07 12:02 42.98667 14.70274 38019 ft 418 kts 299°
2026-05-07 12:02 43.01936 14.63694 38020 ft 419 kts 299°
2026-05-07 12:03 43.04727 14.58062 38019 ft 419 kts 299°
2026-05-07 12:03 43.07990 14.51465 38019 ft 419 kts 299°
2026-05-07 12:04 43.11248 14.44864 38039 ft 419 kts 299°
2026-05-07 12:04 43.14508 14.38243 38026 ft 420 kts 299°
2026-05-07 12:05 43.17769 14.31605 38016 ft 420 kts 299°
2026-05-07 12:05 43.21027 14.24959 38012 ft 420 kts 299°
2026-05-07 12:06 43.24284 14.18301 38015 ft 421 kts 299°
2026-05-07 12:06 43.27542 14.11624 38021 ft 421 kts 299°
2026-05-07 12:07 43.30796 14.04942 38021 ft 421 kts 299°
2026-05-07 12:07 43.34025 13.98296 38021 ft 421 kts 298°
2026-05-07 12:08 43.37273 13.91594 38014 ft 421 kts 298°
2026-05-07 12:08 43.40520 13.84879 38044 ft 422 kts 298°
2026-05-07 12:09 43.43243 13.79236 38028 ft 423 kts 298°
2026-05-07 12:09 43.46495 13.72483 38021 ft 424 kts 298°
2026-05-07 12:10 43.49747 13.65715 38013 ft 424 kts 298°
2026-05-07 12:10 43.52976 13.58978 38017 ft 424 kts 298°
2026-05-07 12:11 43.56223 13.52189 38022 ft 425 kts 298°
2026-05-07 12:11 43.59464 13.45371 37998 ft 425 kts 297°
2026-05-07 12:12 43.62594 13.38480 37999 ft 425 kts 296°
2026-05-07 12:12 43.65703 13.31525 37998 ft 426 kts 296°
2026-05-07 12:13 43.68820 13.24560 37987 ft 426 kts 296°
2026-05-07 12:13 43.71938 13.17600 37996 ft 426 kts 296°
2026-05-07 12:14 43.75054 13.10636 38010 ft 426 kts 296°
2026-05-07 12:14 43.78170 13.03658 38003 ft 426 kts 296°
2026-05-07 12:15 43.81281 12.96673 37998 ft 426 kts 296°
2026-05-07 12:15 43.84387 12.89682 37997 ft 426 kts 296°
2026-05-07 12:16 43.87489 12.82683 37996 ft 426 kts 296°
2026-05-07 12:16 43.90583 12.75684 38030 ft 426 kts 296°
2026-05-07 12:17 43.93660 12.68706 38008 ft 427 kts 296°
2026-05-07 12:17 43.96753 12.61677 37989 ft 427 kts 296°
2026-05-07 12:18 43.99843 12.54638 37990 ft 427 kts 296°
2026-05-07 12:18 44.02926 12.47598 37999 ft 427 kts 296°
2026-05-07 12:19 44.06006 12.40545 38022 ft 427 kts 296°
2026-05-07 12:19 44.09084 12.33483 38019 ft 427 kts 296°
2026-05-07 12:20 44.12157 12.26412 38023 ft 427 kts 296°
2026-05-07 12:20 44.15225 12.19336 38020 ft 427 kts 296°
2026-05-07 12:21 44.18289 12.12252 37994 ft 427 kts 296°
2026-05-07 12:21 44.21349 12.05159 37995 ft 427 kts 296°
2026-05-07 12:22 44.24406 11.98056 37997 ft 427 kts 296°
2026-05-07 12:22 44.27459 11.90945 37992 ft 427 kts 296°
2026-05-07 12:23 44.30507 11.83827 37987 ft 427 kts 296°
2026-05-07 12:23 44.33549 11.76706 37985 ft 427 kts 296°
2026-05-07 12:24 44.36588 11.69574 37972 ft 428 kts 296°
2026-05-07 12:24 44.38118 11.65973 37495 ft 433 kts 296°
2026-05-07 12:24 44.39655 11.62354 36937 ft 431 kts 295°
2026-05-07 12:24 44.41175 11.58776 36438 ft 427 kts 295°
2026-05-07 12:25 44.42664 11.55267 35839 ft 423 kts 295°
2026-05-07 12:25 44.44158 11.51740 35220 ft 420 kts 295°
2026-05-07 12:25 44.45636 11.48242 34603 ft 416 kts 295°
2026-05-07 12:25 44.47107 11.44756 33985 ft 415 kts 294°
2026-05-07 12:26 44.48571 11.41279 33239 ft 414 kts 294°
2026-05-07 12:26 44.50029 11.37817 32591 ft 411 kts 294°
2026-05-07 12:26 44.51395 11.34331 31834 ft 405 kts 289°
2026-05-07 12:26 44.52516 11.30722 31162 ft 404 kts 288°
2026-05-07 12:27 44.53596 11.27025 30449 ft 415 kts 287°
2026-05-07 12:27 44.54683 11.23259 29617 ft 418 kts 287°
2026-05-07 12:27 44.55775 11.19502 28823 ft 414 kts 288°
2026-05-07 12:27 44.56856 11.15830 28303 ft 404 kts 288°
2026-05-07 12:28 44.57924 11.12223 27787 ft 396 kts 288°
2026-05-07 12:28 44.58980 11.08667 27242 ft 395 kts 288°
2026-05-07 12:28 44.60037 11.05100 26712 ft 397 kts 288°
2026-05-07 12:28 44.61099 11.01517 26168 ft 397 kts 288°
2026-05-07 12:29 44.62160 10.97941 25621 ft 394 kts 288°
2026-05-07 12:29 44.63208 10.94405 25089 ft 391 kts 288°
2026-05-07 12:29 44.64249 10.90888 24550 ft 389 kts 288°
2026-05-07 12:29 44.65284 10.87386 24041 ft 387 kts 288°
2026-05-07 12:30 44.66312 10.83902 23515 ft 386 kts 288°
2026-05-07 12:30 44.67335 10.80429 22913 ft 384 kts 289°
2026-05-07 12:30 44.68352 10.76970 22401 ft 381 kts 289°
2026-05-07 12:30 44.69360 10.73540 21858 ft 379 kts 289°
2026-05-07 12:31 44.70360 10.70130 21332 ft 377 kts 289°
2026-05-07 12:31 44.71354 10.66738 20807 ft 373 kts 289°
2026-05-07 12:31 44.72323 10.63427 20300 ft 371 kts 290°
2026-05-07 12:31 44.73303 10.60072 19793 ft 371 kts 290°
2026-05-07 12:32 44.74281 10.56718 19295 ft 371 kts 290°
2026-05-07 12:32 44.75258 10.53362 18776 ft 370 kts 290°
2026-05-07 12:32 44.76232 10.50016 18259 ft 369 kts 291°
2026-05-07 12:32 44.77201 10.46684 17926 ft 363 kts 291°
2026-05-07 12:33 44.79099 10.40143 17604 ft 364 kts 290°
2026-05-07 12:33 44.80058 10.36828 17445 ft 366 kts 290°
2026-05-07 12:33 44.81043 10.33541 17258 ft 362 kts 295°
2026-05-07 12:34 44.82599 10.30779 16812 ft 364 kts 317°
2026-05-07 12:34 44.84716 10.28817 16244 ft 366 kts 332°
2026-05-07 12:34 44.87096 10.27504 15621 ft 368 kts 338°
2026-05-07 12:34 44.89519 10.26328 15053 ft 367 kts 339°
2026-05-07 12:35 44.91932 10.25183 14532 ft 365 kts 339°
2026-05-07 12:35 44.94329 10.24042 14039 ft 362 kts 339°
2026-05-07 12:35 44.96709 10.22896 13507 ft 360 kts 339°
2026-05-07 12:35 44.99070 10.21747 12952 ft 358 kts 338°
2026-05-07 12:36 45.01415 10.20597 12416 ft 355 kts 338°
2026-05-07 12:36 45.03741 10.19449 11944 ft 353 kts 338°
2026-05-07 12:36 45.06049 10.18307 11432 ft 351 kts 338°
2026-05-07 12:36 45.08346 10.17167 10926 ft 349 kts 338°
2026-05-07 12:37 45.10618 10.16038 10635 ft 342 kts 338°
2026-05-07 12:37 45.12815 10.14946 10455 ft 337 kts 338°
2026-05-07 12:37 45.15067 10.13824 10316 ft 342 kts 338°
2026-05-07 12:37 45.17296 10.12711 10171 ft 346 kts 338°
2026-05-07 12:38 45.19565 10.11579 10010 ft 343 kts 338°
2026-05-07 12:38 45.21800 10.10464 9658 ft 338 kts 338°
2026-05-07 12:38 45.23998 10.09367 9290 ft 332 kts 338°
2026-05-07 12:38 45.26157 10.08289 8950 ft 325 kts 338°
2026-05-07 12:39 45.28268 10.07233 8626 ft 319 kts 339°
2026-05-07 12:39 45.30350 10.06191 8303 ft 315 kts 339°
2026-05-07 12:39 45.32406 10.05160 7987 ft 312 kts 339°
2026-05-07 12:39 45.34449 10.04134 7668 ft 311 kts 339°
2026-05-07 12:40 45.36481 10.03113 7346 ft 309 kts 339°
2026-05-07 12:40 45.38504 10.02097 7026 ft 308 kts 339°
2026-05-07 12:40 45.40516 10.01085 6730 ft 306 kts 339°
2026-05-07 12:40 45.42516 10.00079 6459 ft 302 kts 339°
2026-05-07 12:41 45.44462 9.99100 6322 ft 292 kts 339°
2026-05-07 12:41 45.46349 9.98151 6186 ft 283 kts 339°
2026-05-07 12:41 45.48181 9.97228 6068 ft 276 kts 339°
2026-05-07 12:41 45.49976 9.96369 5886 ft 270 kts 345°
2026-05-07 12:42 45.51844 9.96148 5603 ft 269 kts 358°
2026-05-07 12:42 45.53711 9.96128 5292 ft 266 kts 358°
2026-05-07 12:42 45.55538 9.96074 4974 ft 259 kts 357°
2026-05-07 12:42 45.57303 9.96008 4704 ft 247 kts 356°
2026-05-07 12:43 45.58979 9.95933 4395 ft 235 kts 356°
2026-05-07 12:43 45.60564 9.95835 4117 ft 221 kts 351°
2026-05-07 12:43 45.61882 9.94967 3846 ft 204 kts 308°
2026-05-07 12:43 45.62451 9.93236 3727 ft 188 kts 287°
2026-05-07 12:44 45.62890 9.91493 3489 ft 184 kts 288°
2026-05-07 12:44 45.63264 9.89764 3246 ft 181 kts 284°
2026-05-07 12:44 45.63588 9.88047 3011 ft 177 kts 283°
2026-05-07 12:44 45.63898 9.86359 2772 ft 175 kts 283°
2026-05-07 12:45 45.64202 9.84696 2537 ft 171 kts 284°
2026-05-07 12:45 45.64501 9.83071 2329 ft 166 kts 283°
2026-05-07 12:45 45.64785 9.81529 2116 ft 155 kts 283°
2026-05-07 12:45 45.65057 9.80047 1911 ft 156 kts 283°
2026-05-07 12:46 45.65332 9.78555 1704 ft 155 kts 283°
2026-05-07 12:46 45.65608 9.77060 1469 ft 155 kts 282°
2026-05-07 12:46 45.65879 9.75576 1259 ft 154 kts 283°
2026-05-07 12:46 45.66157 9.74075 1063 ft 158 kts 283°
2026-05-07 12:47 45.66430 9.72560 845 ft 156 kts 284°
2026-05-07 12:47 45.66697 9.71139 786 ft 131 kts 282°
2026-05-07 12:47 45.66872 9.70186 786 ft 70 kts 285°
2026-05-07 12:47 45.66947 9.69793 786 ft 28 kts 285°
2026-05-07 12:48 45.67015 9.69434 786 ft 44 kts 285°
2026-05-07 12:48 45.67063 9.69104 786 ft 22 kts 264°
2026-05-07 12:48 45.66969 9.68988 786 ft 12 kts 186°
2026-05-07 12:48 45.66911 9.69047 786 ft 11 kts 108°
2026-05-07 12:49 45.66897 9.69163 786 ft 13 kts 101°
2026-05-07 12:49 45.66871 9.69312 786 ft 17 kts 105°
2026-05-07 12:49 45.66837 9.69493 786 ft 20 kts 105°
2026-05-07 12:49 45.66801 9.69688 786 ft 20 kts 104°
2026-05-07 12:50 45.66766 9.69876 786 ft 19 kts 105°
2026-05-07 12:50 45.66737 9.70030 786 ft 16 kts 105°
2026-05-07 12:50 45.66711 9.70172 786 ft 14 kts 103°
2026-05-07 12:50 45.66686 9.70305 786 ft 14 kts 105°
2026-05-07 12:51 45.66669 9.70377 786 ft 1 kts 144°
2026-05-07 12:51 45.66613 9.70285 786 ft 0 kts 195°